Time,TemperatureF,DewpointF,PressureIn,WindDirection,WindDirectionDegrees,WindSpeedMPH,WindSpeedGustMPH,Humidity,HourlyPrecipIn,Conditions,Clouds,dailyrainin,SoftwareType,DateUTC
2013-06-17 04:38:00,67.9,64.2,29.91,South,183,5.0,5.0,88,0.00,,---,0.00,VWS V14.01,2013-06-17 08:38:00,
2013-06-17 04:39:00,67.9,64.2,29.91,SSW,211,6.0,6.0,88,0.00,,---,0.00,VWS V14.01,2013-06-17 08:39:00,
2013-06-17 04:40:00,67.9,64.2,29.91,SSW,211,6.0,6.0,88,0.00,,---,0.00,VWS V14.01,2013-06-17 08:40:00,
2013-06-17 04:44:00,67.9,64.2,29.91,SW,236,0.0,7.0,88,0.00,,---,0.00,VWS V14.01,2013-06-17 08:44:00,
2013-06-17 04:49:00,67.9,64.2,29.91,SSW,213,2.0,2.0,88,0.00,,---,0.00,VWS V14.01,2013-06-17 08:49:00,
2013-06-17 04:50:00,67.9,64.2,29.91,South,190,1.0,7.0,88,0.00,,---,0.00,VWS V14.01,2013-06-17 08:50:00,
2013-06-17 04:54:00,67.9,64.2,29.91,South,180,2.0,6.0,88,0.00,,---,0.00,VWS V14.01,2013-06-17 08:54:00,
2013-06-17 04:59:00,67.8,64.4,29.91,SSW,203,3.0,6.0,89,0.00,,---,0.00,VWS V14.01,2013-06-17 08:59:00,
2013-06-17 05:00:00,67.8,64.4,29.91,SW,232,0.0,6.0,89,0.00,,---,0.00,VWS V14.01,2013-06-17 09:00:00,
2013-06-17 05:04:00,67.8,64.4,29.91,South,186,2.0,6.0,89,0.00,,---,0.00,VWS V14.01,2013-06-17 09:04:00,
2013-06-17 05:09:00,67.9,64.5,29.91,SSW,202,0.0,0.0,89,0.00,,---,0.00,VWS V14.01,2013-06-17 09:09:00,
2013-06-17 05:10:00,67.9,64.5,29.91,South,179,0.0,6.0,89,0.00,,---,0.00,VWS V14.01,2013-06-17 09:10:00,
2013-06-17 05:14:00,67.9,64.5,29.91,SSW,205,4.0,8.0,89,0.00,,---,0.00,VWS V14.01,2013-06-17 09:14:00,
2013-06-17 05:19:00,67.9,64.5,29.91,SW,221,1.0,4.0,89,0.00,,---,0.00,VWS V14.01,2013-06-17 09:19:00,
2013-06-17 05:20:00,67.9,64.5,29.91,SSW,210,4.0,8.0,89,0.00,,---,0.00,VWS V14.01,2013-06-17 09:20:00,
2013-06-17 05:24:00,67.9,64.5,29.91,SSW,192,0.0,5.0,89,0.00,,---,0.00,VWS V14.01,2013-06-17 09:24:00,
2013-06-17 05:29:00,67.9,64.9,29.91,South,187,2.0,2.0,90,0.00,,---,0.00,VWS V14.01,2013-06-17 09:29:00,
2013-06-17 05:30:00,67.9,64.9,29.91,SSW,203,1.0,6.0,90,0.00,,---,0.00,VWS V14.01,2013-06-17 09:30:00,
2013-06-17 05:34:00,67.9,64.9,29.91,SW,215,0.0,7.0,90,0.00,,---,0.00,VWS V14.01,2013-06-17 09:34:00,
2013-06-17 05:39:00,67.9,64.9,29.91,West,259,0.0,0.0,90,0.00,,---,0.00,VWS V14.01,2013-06-17 09:39:00,
2013-06-17 05:40:00,67.9,64.9,29.91,SW,215,0.0,7.0,90,0.00,,---,0.00,VWS V14.01,2013-06-17 09:40:00,
2013-06-17 05:44:00,68.0,65.0,29.91,SW,215,3.0,5.0,90,0.00,,---,0.00,VWS V14.01,2013-06-17 09:44:00,
2013-06-17 05:49:00,68.0,65.0,29.91,WSW,245,0.0,1.0,90,0.00,,---,0.00,VWS V14.01,2013-06-17 09:49:00,
2013-06-17 05:50:00,68.0,65.0,29.91,SW,222,1.0,5.0,90,0.00,,---,0.00,VWS V14.01,2013-06-17 09:50:00,
2013-06-17 05:54:00,67.9,64.9,29.91,SW,222,3.0,5.0,90,0.00,,---,0.00,VWS V14.01,2013-06-17 09:54:00,
2013-06-17 05:59:00,67.9,64.9,29.91,SW,222,2.0,2.0,90,0.00,,---,0.00,VWS V14.01,2013-06-17 09:59:00,
2013-06-17 06:00:00,67.9,64.9,29.91,WSW,238,1.0,5.0,90,0.00,,---,0.00,VWS V14.01,2013-06-17 10:00:00,
2013-06-17 06:04:00,67.9,65.2,29.91,WSW,249,5.0,5.0,91,0.00,,---,0.00,VWS V14.01,2013-06-17 10:04:00,
2013-06-17 06:09:00,67.8,65.1,29.91,SSW,196,0.0,0.0,91,0.00,,---,0.00,VWS V14.01,2013-06-17 10:09:00,
2013-06-17 06:10:00,67.8,65.1,29.91,SW,236,0.0,5.0,91,0.00,,---,0.00,VWS V14.01,2013-06-17 10:10:00,
2013-06-17 06:14:00,67.8,65.1,29.91,SW,221,0.0,2.0,91,0.00,,---,0.00,VWS V14.01,2013-06-17 10:14:00,
2013-06-17 06:19:00,67.8,65.1,29.91,WSW,238,1.0,1.0,91,0.00,,---,0.00,VWS V14.01,2013-06-17 10:19:00,
2013-06-17 06:20:00,67.8,65.1,29.91,WSW,241,0.0,2.0,91,0.00,,---,0.00,VWS V14.01,2013-06-17 10:20:00,
2013-06-17 06:24:00,67.8,65.1,29.92,SSW,202,0.0,1.0,91,0.00,,---,0.00,VWS V14.01,2013-06-17 10:24:00,
2013-06-17 06:29:00,67.8,65.1,29.91,SSW,200,2.0,2.0,91,0.00,,---,0.00,VWS V14.01,2013-06-17 10:29:00,
2013-06-17 06:30:00,67.8,65.1,29.91,SSW,200,2.0,5.0,91,0.00,,---,0.00,VWS V14.01,2013-06-17 10:30:00,
2013-06-17 06:34:00,67.9,65.2,29.91,SW,230,0.0,5.0,91,0.00,,---,0.00,VWS V14.01,2013-06-17 10:34:00,
2013-06-17 06:39:00,67.9,65.2,29.91,SSW,202,0.0,0.0,91,0.00,,---,0.00,VWS V14.01,2013-06-17 10:39:00,
2013-06-17 06:40:00,67.9,65.2,29.91,SSW,213,0.0,5.0,91,0.00,,---,0.00,VWS V14.01,2013-06-17 10:40:00,
2013-06-17 06:44:00,67.9,65.2,29.91,SW,215,0.0,2.0,91,0.00,,---,0.00,VWS V14.01,2013-06-17 10:44:00,
2013-06-17 06:49:00,68.0,65.3,29.92,SW,229,2.0,2.0,91,0.00,,---,0.00,VWS V14.01,2013-06-17 10:49:00,
2013-06-17 06:50:00,68.0,65.3,29.91,South,188,0.0,6.0,91,0.00,,---,0.00,VWS V14.01,2013-06-17 10:50:00,
2013-06-17 06:54:00,68.1,65.4,29.92,SSW,207,0.0,3.0,91,0.00,,---,0.00,VWS V14.01,2013-06-17 10:54:00,
2013-06-17 06:59:00,68.1,65.4,29.92,SW,221,2.0,2.0,91,0.00,,---,0.00,VWS V14.01,2013-06-17 10:59:00,
2013-06-17 07:00:00,68.2,65.5,29.92,SW,225,2.0,3.0,91,0.00,,---,0.00,VWS V14.01,2013-06-17 11:00:00,
2013-06-17 07:04:00,68.2,65.5,29.92,SSW,212,0.0,4.0,91,0.00,,---,0.00,VWS V14.01,2013-06-17 11:04:00,
2013-06-17 07:09:00,68.3,65.6,29.92,SW,236,0.0,3.0,91,0.00,,---,0.00,VWS V14.01,2013-06-17 11:09:00,
2013-06-17 07:10:00,68.3,65.6,29.92,SW,230,3.0,4.0,91,0.00,,---,0.00,VWS V14.01,2013-06-17 11:10:00,
2013-06-17 07:14:00,68.3,65.3,29.92,WSW,249,2.0,4.0,90,0.00,,---,0.00,VWS V14.01,2013-06-17 11:14:00,
2013-06-17 07:19:00,68.3,65.3,29.92,SSW,199,1.0,3.0,90,0.00,,---,0.00,VWS V14.01,2013-06-17 11:19:00,
2013-06-17 07:20:00,68.3,65.3,29.92,WSW,246,2.0,4.0,90,0.00,,---,0.00,VWS V14.01,2013-06-17 11:20:00,
2013-06-17 07:24:00,68.4,65.4,29.92,SSW,192,1.0,5.0,90,0.00,,---,0.00,VWS V14.01,2013-06-17 11:24:00,
2013-06-17 07:29:00,68.4,65.4,29.92,SSW,206,2.0,2.0,90,0.00,,---,0.00,VWS V14.01,2013-06-17 11:29:00,
2013-06-17 07:30:00,68.4,65.4,29.92,SSW,211,2.0,5.0,90,0.00,,---,0.00,VWS V14.01,2013-06-17 11:30:00,
2013-06-17 07:34:00,68.4,65.7,29.93,West,272,1.0,5.0,91,0.00,,---,0.00,VWS V14.01,2013-06-17 11:34:00,
2013-06-17 07:39:00,68.4,65.4,29.93,WSW,248,0.0,1.0,90,0.00,,---,0.00,VWS V14.01,2013-06-17 11:39:00,
2013-06-17 07:40:00,68.4,65.4,29.93,SW,218,0.0,6.0,90,0.00,,---,0.00,VWS V14.01,2013-06-17 11:40:00,
2013-06-17 07:44:00,68.5,65.5,29.93,SSW,199,1.0,4.0,90,0.00,,---,0.00,VWS V14.01,2013-06-17 11:44:00,
2013-06-17 07:49:00,68.6,65.6,29.93,WSW,250,1.0,4.0,90,0.00,,---,0.00,VWS V14.01,2013-06-17 11:49:00,
2013-06-17 07:50:00,68.6,65.6,29.93,WSW,246,1.0,6.0,90,0.00,,---,0.00,VWS V14.01,2013-06-17 11:50:00,
2013-06-17 07:54:00,68.7,65.7,29.93,WSW,246,2.0,6.0,90,0.00,,---,0.00,VWS V14.01,2013-06-17 11:54:00,
2013-06-17 07:59:00,68.9,65.8,29.93,SSW,211,0.0,1.0,90,0.00,,---,0.00,VWS V14.01,2013-06-17 11:59:00,
2013-06-17 08:00:00,68.9,65.8,29.93,SSW,209,2.0,6.0,90,0.00,,---,0.00,VWS V14.01,2013-06-17 12:00:00,
2013-06-17 08:04:00,69.2,65.8,29.93,WSW,246,0.0,6.0,89,0.00,,---,0.00,VWS V14.01,2013-06-17 12:04:00,
2013-06-17 08:09:00,69.4,66.0,29.93,West,266,2.0,4.0,89,0.00,,---,0.00,VWS V14.01,2013-06-17 12:09:00,
2013-06-17 08:10:00,69.4,66.0,29.93,SW,215,2.0,6.0,89,0.00,,---,0.00,VWS V14.01,2013-06-17 12:10:00,
2013-06-17 08:14:00,69.4,66.0,29.93,SSW,205,0.0,4.0,89,0.00,,---,0.00,VWS V14.01,2013-06-17 12:14:00,
2013-06-17 08:19:00,69.3,65.9,29.94,SSW,202,2.0,4.0,89,0.00,,---,0.00,VWS V14.01,2013-06-17 12:19:00,
2013-06-17 08:20:00,69.3,65.9,29.94,SW,227,3.0,4.0,89,0.00,,---,0.00,VWS V14.01,2013-06-17 12:20:00,
2013-06-17 08:24:00,69.2,65.8,29.94,SSW,213,0.0,6.0,89,0.00,,---,0.00,VWS V14.01,2013-06-17 12:24:00,
2013-06-17 08:29:00,69.1,65.7,29.94,WSW,252,1.0,5.0,89,0.00,,---,0.00,VWS V14.01,2013-06-17 12:29:00,
2013-06-17 08:30:00,69.1,65.7,29.94,SW,225,4.0,6.0,89,0.00,,---,0.00,VWS V14.01,2013-06-17 12:30:00,
2013-06-17 08:34:00,69.0,65.6,29.93,SSW,206,2.0,5.0,89,0.00,,---,0.00,VWS V14.01,2013-06-17 12:34:00,
2013-06-17 08:39:00,68.9,65.8,29.94,WSW,250,0.0,1.0,90,0.01,,---,0.01,VWS V14.01,2013-06-17 12:39:00,
2013-06-17 08:40:00,68.9,65.8,29.94,SW,215,0.0,5.0,90,0.01,,---,0.01,VWS V14.01,2013-06-17 12:40:00,
2013-06-17 08:44:00,68.7,65.7,29.94,SSW,207,0.0,4.0,90,0.04,,---,0.04,VWS V14.01,2013-06-17 12:44:00,
2013-06-17 08:49:00,68.4,65.7,29.94,WSW,249,0.0,3.0,91,0.14,,---,0.14,VWS V14.01,2013-06-17 12:49:00,
2013-06-17 08:50:00,68.5,65.8,29.94,WSW,250,1.0,5.0,91,0.13,,---,0.13,VWS V14.01,2013-06-17 12:50:00,
2013-06-17 08:54:00,68.1,65.7,29.94,WSW,256,0.0,5.0,92,0.18,,---,0.18,VWS V14.01,2013-06-17 12:54:00,
2013-06-17 08:59:00,68.0,65.6,29.94,SW,227,0.0,0.0,92,0.18,,---,0.18,VWS V14.01,2013-06-17 12:59:00,
2013-06-17 09:00:00,68.0,65.6,29.94,SW,236,0.0,5.0,92,0.18,,---,0.18,VWS V14.01,2013-06-17 13:00:00,
2013-06-17 09:04:00,67.9,65.8,29.94,SSW,207,0.0,0.0,93,0.18,,---,0.18,VWS V14.01,2013-06-17 13:04:00,
2013-06-17 09:09:00,67.9,65.8,29.93,SSW,213,2.0,3.0,93,0.18,,---,0.18,VWS V14.01,2013-06-17 13:09:00,
2013-06-17 09:10:00,68.0,65.9,29.93,SSW,205,1.0,2.0,93,0.18,,---,0.18,VWS V14.01,2013-06-17 13:10:00,
2013-06-17 09:14:00,68.1,66.0,29.94,WSW,257,0.0,4.0,93,0.18,,---,0.18,VWS V14.01,2013-06-17 13:14:00,
2013-06-17 09:19:00,68.2,66.1,29.94,SW,225,1.0,3.0,93,0.19,,---,0.19,VWS V14.01,2013-06-17 13:19:00,
2013-06-17 09:20:00,68.2,66.1,29.94,SW,219,0.0,4.0,93,0.19,,---,0.19,VWS V14.01,2013-06-17 13:20:00,
2013-06-17 09:24:00,68.2,66.1,29.93,SSW,203,0.0,4.0,93,0.20,,---,0.20,VWS V14.01,2013-06-17 13:24:00,
2013-06-17 09:29:00,68.2,66.1,29.94,WSW,249,0.0,2.0,93,0.20,,---,0.20,VWS V14.01,2013-06-17 13:29:00,
2013-06-17 09:30:00,68.2,66.1,29.94,WSW,250,2.0,4.0,93,0.20,,---,0.20,VWS V14.01,2013-06-17 13:30:00,
2013-06-17 09:34:00,68.1,66.0,29.94,SSW,211,1.0,5.0,93,0.22,,---,0.22,VWS V14.01,2013-06-17 13:34:00,
2013-06-17 09:39:00,68.0,65.9,29.93,South,181,2.0,6.0,93,0.21,,---,0.22,VWS V14.01,2013-06-17 13:39:00,
2013-06-17 09:40:00,68.0,65.9,29.93,SSW,213,6.0,6.0,93,0.22,,---,0.22,VWS V14.01,2013-06-17 13:40:00,
2013-06-17 09:44:00,68.2,66.1,29.92,South,172,1.0,6.0,93,0.21,,---,0.22,VWS V14.01,2013-06-17 13:44:00,
2013-06-17 09:49:00,68.6,66.8,29.93,SSW,207,4.0,5.0,94,0.09,,---,0.22,VWS V14.01,2013-06-17 13:49:00,
2013-06-17 09:50:00,68.5,66.7,29.93,South,186,2.0,6.0,94,0.21,,---,0.22,VWS V14.01,2013-06-17 13:50:00,
2013-06-17 09:54:00,69.4,67.6,29.92,South,190,3.0,6.0,94,0.09,,---,0.22,VWS V14.01,2013-06-17 13:54:00,
2013-06-17 09:59:00,69.6,66.9,29.92,WSW,245,6.0,7.0,91,0.04,,---,0.22,VWS V14.01,2013-06-17 13:59:00,
2013-06-17 10:00:00,69.6,66.9,29.92,SSW,207,3.0,9.0,91,0.09,,---,0.22,VWS V14.01,2013-06-17 14:00:00,
2013-06-17 10:04:00,69.4,66.7,29.92,SSW,202,4.0,8.0,91,0.04,,---,0.22,VWS V14.01,2013-06-17 14:04:00,
2013-06-17 10:09:00,69.4,66.7,29.93,SW,218,3.0,9.0,91,0.04,,---,0.22,VWS V14.01,2013-06-17 14:09:00,
2013-06-17 10:10:00,69.5,66.8,29.92,SW,221,9.0,9.0,91,0.04,,---,0.22,VWS V14.01,2013-06-17 14:10:00,
2013-06-17 10:14:00,69.9,67.2,29.92,SW,214,5.0,9.0,91,0.04,,---,0.22,VWS V14.01,2013-06-17 14:14:00,
2013-06-17 10:19:00,70.1,67.0,29.92,SSE,148,6.0,10.0,90,0.03,,---,0.22,VWS V14.01,2013-06-17 14:19:00,
2013-06-17 10:20:00,70.0,66.6,29.92,SW,221,5.0,10.0,89,0.04,,---,0.22,VWS V14.01,2013-06-17 14:20:00,
2013-06-17 10:24:00,70.5,66.8,29.92,SSW,209,5.0,10.0,88,0.03,,---,0.22,VWS V14.01,2013-06-17 14:24:00,
2013-06-17 10:29:00,70.7,67.3,29.92,SSW,210,5.0,6.0,89,0.02,,---,0.22,VWS V14.01,2013-06-17 14:29:00,
2013-06-17 10:30:00,70.7,67.6,29.92,SW,230,5.0,10.0,90,0.03,,---,0.22,VWS V14.01,2013-06-17 14:30:00,
2013-06-17 10:35:00,71.3,67.9,29.92,SW,221,4.0,7.0,89,0.02,,---,0.22,VWS V14.01,2013-06-17 14:35:00,
2013-06-17 10:40:00,71.2,66.8,29.92,West,265,0.0,5.0,86,0.00,,---,0.22,VWS V14.01,2013-06-17 14:40:00,
2013-06-17 10:45:00,71.5,67.4,29.93,SW,227,0.0,6.0,87,0.00,,---,0.22,VWS V14.01,2013-06-17 14:45:00,
2013-06-17 10:50:00,72.4,68.0,29.93,SSW,213,3.0,3.0,86,0.00,,---,0.22,VWS V14.01,2013-06-17 14:50:00,
2013-06-17 10:55:00,72.7,67.9,29.93,SW,234,0.0,7.0,85,0.00,,---,0.22,VWS V14.01,2013-06-17 14:55:00,
2013-06-17 11:00:00,73.3,68.2,29.93,West,265,1.0,3.0,84,0.00,,---,0.22,VWS V14.01,2013-06-17 15:00:00,
2013-06-17 11:05:00,73.4,67.9,29.93,West,263,1.0,6.0,83,0.00,,---,0.22,VWS V14.01,2013-06-17 15:05:00,
2013-06-17 11:10:00,73.6,68.1,29.94,WSW,246,0.0,2.0,83,0.00,,---,0.22,VWS V14.01,2013-06-17 15:10:00,
2013-06-17 11:15:00,73.5,67.7,29.94,WSW,237,0.0,3.0,82,0.00,,---,0.22,VWS V14.01,2013-06-17 15:15:00,
2013-06-17 11:20:00,72.8,67.3,29.94,SW,236,2.0,3.0,83,0.00,,---,0.22,VWS V14.01,2013-06-17 15:20:00,
2013-06-17 11:25:00,72.9,67.8,29.94,SW,230,3.0,7.0,84,0.00,,---,0.22,VWS V14.01,2013-06-17 15:25:00,
2013-06-17 11:30:00,73.4,67.6,29.94,South,185,2.0,5.0,82,0.00,,---,0.22,VWS V14.01,2013-06-17 15:30:00,
2013-06-17 11:35:00,73.9,68.1,29.93,SSW,196,5.0,8.0,82,0.00,,---,0.22,VWS V14.01,2013-06-17 15:35:00,
2013-06-17 11:40:00,74.2,68.0,29.93,South,181,6.0,7.0,81,0.00,,---,0.22,VWS V14.01,2013-06-17 15:40:00,
2013-06-17 11:45:00,74.4,67.8,29.93,SSW,205,6.0,9.0,80,0.00,,---,0.22,VWS V14.01,2013-06-17 15:45:00,
2013-06-17 11:50:00,74.1,67.5,29.93,South,173,2.0,4.0,80,0.00,,---,0.22,VWS V14.01,2013-06-17 15:50:00,
2013-06-17 11:55:00,74.8,67.9,29.93,SW,225,3.0,6.0,79,0.00,,---,0.22,VWS V14.01,2013-06-17 15:55:00,
2013-06-17 12:00:00,74.9,67.6,29.93,WSW,253,2.0,3.0,78,0.00,,---,0.22,VWS V14.01,2013-06-17 16:00:00,
2013-06-17 12:05:00,75.4,67.7,29.93,South,186,4.0,6.0,77,0.00,,---,0.22,VWS V14.01,2013-06-17 16:05:00,
2013-06-17 12:10:00,76.1,67.6,29.93,South,169,6.0,6.0,75,0.00,,---,0.22,VWS V14.01,2013-06-17 16:10:00,
2013-06-17 12:15:00,76.2,67.7,29.93,SSW,200,3.0,8.0,75,0.00,,---,0.22,VWS V14.01,2013-06-17 16:15:00,
2013-06-17 12:20:00,76.1,66.8,29.93,South,176,5.0,9.0,73,0.00,,---,0.22,VWS V14.01,2013-06-17 16:20:00,
2013-06-17 12:25:00,76.3,67.0,29.93,SW,227,5.0,9.0,73,0.00,,---,0.22,VWS V14.01,2013-06-17 16:25:00,
2013-06-17 12:30:00,76.4,67.1,29.93,SW,236,4.0,8.0,73,0.00,,---,0.22,VWS V14.01,2013-06-17 16:30:00,
2013-06-17 12:35:00,76.2,67.3,29.93,WSW,251,3.0,8.0,74,0.00,,---,0.22,VWS V14.01,2013-06-17 16:35:00,
2013-06-17 12:40:00,76.7,65.8,29.93,South,172,4.0,5.0,69,0.00,,---,0.22,VWS V14.01,2013-06-17 16:40:00,
2013-06-17 12:45:00,77.3,68.0,29.93,SW,219,5.0,9.0,73,0.00,,---,0.22,VWS V14.01,2013-06-17 16:45:00,
2013-06-17 12:50:00,77.5,66.5,29.93,South,186,2.0,6.0,69,0.00,,---,0.22,VWS V14.01,2013-06-17 16:50:00,
2013-06-17 12:55:00,77.8,65.5,29.93,SW,232,2.0,8.0,66,0.00,,---,0.22,VWS V14.01,2013-06-17 16:55:00,
2013-06-17 13:00:00,77.9,65.2,29.93,SW,218,2.0,6.0,65,0.00,,---,0.22,VWS V14.01,2013-06-17 17:00:00,
2013-06-17 13:05:00,78.3,66.4,29.93,SW,219,2.0,7.0,67,0.00,,---,0.22,VWS V14.01,2013-06-17 17:05:00,
2013-06-17 13:10:00,78.6,67.6,29.93,SSW,209,1.0,4.0,69,0.00,,---,0.22,VWS V14.01,2013-06-17 17:10:00,
2013-06-17 13:15:00,79.5,65.3,29.93,NW,317,2.0,4.0,62,0.00,,---,0.22,VWS V14.01,2013-06-17 17:15:00,
2013-06-17 13:20:00,79.2,64.6,29.93,South,173,6.0,6.0,61,0.00,,---,0.22,VWS V14.01,2013-06-17 17:20:00,
2013-06-17 13:25:00,78.3,65.1,29.92,SSW,209,2.0,11.0,64,0.00,,---,0.22,VWS V14.01,2013-06-17 17:25:00,
2013-06-17 13:30:00,78.4,63.8,29.92,WSW,242,4.0,4.0,61,0.00,,---,0.22,VWS V14.01,2013-06-17 17:30:00,
2013-06-17 13:35:00,78.8,64.7,29.92,West,268,2.0,7.0,62,0.00,,---,0.22,VWS V14.01,2013-06-17 17:35:00,
2013-06-17 13:40:00,79.3,64.2,29.92,South,180,1.0,8.0,60,0.00,,---,0.22,VWS V14.01,2013-06-17 17:40:00,
2013-06-17 13:45:00,79.2,64.6,29.92,WSW,246,4.0,8.0,61,0.00,,---,0.22,VWS V14.01,2013-06-17 17:45:00,
2013-06-17 13:50:00,79.4,66.2,29.91,NNW,331,4.0,6.0,64,0.00,,---,0.22,VWS V14.01,2013-06-17 17:50:00,
2013-06-17 13:55:00,79.6,65.4,29.92,SSW,202,7.0,10.0,62,0.00,,---,0.22,VWS V14.01,2013-06-17 17:55:00,
2013-06-17 14:00:00,79.5,66.3,29.91,WSW,244,0.0,4.0,64,0.00,,---,0.22,VWS V14.01,2013-06-17 18:00:00,
2013-06-17 14:05:00,79.7,65.5,29.91,WSW,248,0.0,8.0,62,0.00,,---,0.22,VWS V14.01,2013-06-17 18:05:00,
2013-06-17 14:10:00,80.2,66.0,29.92,SW,219,2.0,3.0,62,0.00,,---,0.22,VWS V14.01,2013-06-17 18:10:00,
2013-06-17 14:15:00,79.8,64.7,29.92,South,180,6.0,11.0,60,0.00,,---,0.22,VWS V14.01,2013-06-17 18:15:00,
2013-06-17 14:20:00,79.6,65.9,29.92,SSW,193,6.0,9.0,63,0.00,,---,0.22,VWS V14.01,2013-06-17 18:20:00,
2013-06-17 14:25:00,79.7,66.5,29.92,North,5,1.0,9.0,64,0.00,,---,0.22,VWS V14.01,2013-06-17 18:25:00,
2013-06-17 14:30:00,79.6,65.4,29.91,South,186,0.0,5.0,62,0.00,,---,0.22,VWS V14.01,2013-06-17 18:30:00,
2013-06-17 14:35:00,79.5,65.3,29.91,SSW,196,3.0,7.0,62,0.00,,---,0.22,VWS V14.01,2013-06-17 18:35:00,
2013-06-17 14:40:00,80.0,65.4,29.91,WNW,292,1.0,4.0,61,0.00,,---,0.22,VWS V14.01,2013-06-17 18:40:00,
2013-06-17 14:45:00,81.0,66.3,29.91,WSW,248,3.0,4.0,61,0.00,,---,0.22,VWS V14.01,2013-06-17 18:45:00,
2013-06-17 14:50:00,81.2,65.5,29.90,SW,236,1.0,1.0,59,0.00,,---,0.22,VWS V14.01,2013-06-17 18:50:00,
2013-06-17 14:55:00,81.3,64.1,29.90,SW,226,2.0,5.0,56,0.00,,---,0.22,VWS V14.01,2013-06-17 18:55:00,
2013-06-17 15:00:00,81.5,64.3,29.90,WSW,244,2.0,3.0,56,0.00,,---,0.22,VWS V14.01,2013-06-17 19:00:00,
2013-06-17 15:05:00,81.3,64.1,29.90,SSW,209,1.0,6.0,56,0.00,,---,0.22,VWS V14.01,2013-06-17 19:05:00,
2013-06-17 15:10:00,81.7,62.4,29.90,South,190,0.0,4.0,52,0.00,,---,0.22,VWS V14.01,2013-06-17 19:10:00,
2013-06-17 15:15:00,82.0,63.7,29.90,West,265,1.0,5.0,54,0.00,,---,0.22,VWS V14.01,2013-06-17 19:15:00,
2013-06-17 15:20:00,81.8,63.0,29.90,WSW,244,0.0,3.0,53,0.00,,---,0.22,VWS V14.01,2013-06-17 19:20:00,
2013-06-17 15:25:00,82.3,64.5,29.90,WSW,241,0.0,5.0,55,0.00,,---,0.22,VWS V14.01,2013-06-17 19:25:00,
2013-06-17 15:30:00,82.4,64.6,29.90,WSW,254,1.0,5.0,55,0.00,,---,0.22,VWS V14.01,2013-06-17 19:30:00,
2013-06-17 15:35:00,82.4,64.6,29.90,WSW,249,5.0,5.0,55,0.00,,---,0.22,VWS V14.01,2013-06-17 19:35:00,
2013-06-17 15:40:00,82.1,63.3,29.89,ESE,105,0.0,5.0,53,0.00,,---,0.22,VWS V14.01,2013-06-17 19:40:00,
2013-06-17 15:41:00,82.0,64.3,29.89,NW,322,2.0,4.0,55,0.00,,---,0.22,VWS V14.01,2013-06-17 19:41:00,
2013-06-17 15:46:00,81.7,64.5,29.89,WSW,245,3.0,9.0,56,0.00,,---,0.22,VWS V14.01,2013-06-17 19:46:00,
2013-06-17 15:50:00,81.6,63.9,29.89,SW,234,0.0,9.0,55,0.00,,---,0.22,VWS V14.01,2013-06-17 19:50:00,
2013-06-17 15:51:00,81.8,65.1,29.89,NW,311,0.0,2.0,57,0.00,,---,0.22,VWS V14.01,2013-06-17 19:51:00,
2013-06-17 15:56:00,81.8,64.1,29.89,South,188,6.0,8.0,55,0.00,,---,0.22,VWS V14.01,2013-06-17 19:56:00,
2013-06-17 16:00:00,81.5,65.3,29.89,WSW,250,1.0,8.0,58,0.00,,---,0.22,VWS V14.01,2013-06-17 20:00:00,
2013-06-17 16:01:00,81.6,64.9,29.89,ENE,69,0.0,4.0,57,0.00,,---,0.22,VWS V14.01,2013-06-17 20:01:00,
2013-06-17 16:06:00,82.1,64.3,29.89,SSW,199,0.0,4.0,55,0.00,,---,0.22,VWS V14.01,2013-06-17 20:06:00,
2013-06-17 16:10:00,82.3,64.0,29.88,SE,135,0.0,4.0,54,0.00,,---,0.22,VWS V14.01,2013-06-17 20:10:00,
2013-06-17 16:11:00,82.3,65.1,29.88,ESE,108,0.0,1.0,56,0.00,,---,0.22,VWS V14.01,2013-06-17 20:11:00,
2013-06-17 16:16:00,81.9,64.7,29.88,WSW,256,0.0,3.0,56,0.00,,---,0.22,VWS V14.01,2013-06-17 20:16:00,
2013-06-17 16:20:00,82.0,64.3,29.88,SSE,159,0.0,3.0,55,0.00,,---,0.22,VWS V14.01,2013-06-17 20:20:00,
2013-06-17 16:21:00,82.2,65.0,29.88,WSW,248,0.0,2.0,56,0.00,,---,0.22,VWS V14.01,2013-06-17 20:21:00,
2013-06-17 16:26:00,82.9,64.0,29.88,SW,227,1.0,2.0,53,0.00,,---,0.22,VWS V14.01,2013-06-17 20:26:00,
2013-06-17 16:30:00,83.2,65.4,29.88,WSW,237,0.0,2.0,55,0.00,,---,0.22,VWS V14.01,2013-06-17 20:30:00,
2013-06-17 16:31:00,83.2,63.8,29.88,West,265,1.0,4.0,52,0.00,,---,0.22,VWS V14.01,2013-06-17 20:31:00,
2013-06-17 16:36:00,83.0,63.6,29.88,SE,134,1.0,4.0,52,0.00,,---,0.22,VWS V14.01,2013-06-17 20:36:00,
2013-06-17 16:40:00,82.9,64.6,29.88,East,94,0.0,4.0,54,0.00,,---,0.22,VWS V14.01,2013-06-17 20:40:00,
2013-06-17 16:41:00,82.9,64.0,29.88,WNW,288,0.0,2.0,53,0.00,,---,0.22,VWS V14.01,2013-06-17 20:41:00,
2013-06-17 16:46:00,82.5,64.2,29.88,NNE,12,0.0,3.0,54,0.00,,---,0.22,VWS V14.01,2013-06-17 20:46:00,
2013-06-17 16:50:00,82.6,64.8,29.88,West,277,1.0,3.0,55,0.00,,---,0.22,VWS V14.01,2013-06-17 20:50:00,
2013-06-17 16:51:00,82.8,65.0,29.88,ENE,66,2.0,3.0,55,0.00,,---,0.22,VWS V14.01,2013-06-17 20:51:00,
2013-06-17 16:56:00,82.7,64.4,29.88,WSW,239,1.0,3.0,54,0.00,,---,0.22,VWS V14.01,2013-06-17 20:56:00,
2013-06-17 17:00:00,82.4,64.1,29.88,NW,309,3.0,4.0,54,0.00,,---,0.22,VWS V14.01,2013-06-17 21:00:00,
2013-06-17 17:01:00,82.0,63.2,29.87,NW,319,1.0,3.0,53,0.00,,---,0.22,VWS V14.01,2013-06-17 21:01:00,
2013-06-17 17:06:00,81.2,63.5,29.87,North,355,1.0,3.0,55,0.00,,---,0.22,VWS V14.01,2013-06-17 21:06:00,
2013-06-17 17:10:00,80.9,63.8,29.87,North,5,0.0,3.0,56,0.00,,---,0.22,VWS V14.01,2013-06-17 21:10:00,
2013-06-17 17:11:00,80.9,63.2,29.88,NW,319,0.0,1.0,55,0.00,,---,0.22,VWS V14.01,2013-06-17 21:11:00,
2013-06-17 17:16:00,81.2,64.0,29.87,West,259,1.0,2.0,56,0.00,,---,0.22,VWS V14.01,2013-06-17 21:16:00,
2013-06-17 17:20:00,81.4,65.2,29.87,West,259,0.0,2.0,58,0.00,,---,0.22,VWS V14.01,2013-06-17 21:20:00,
2013-06-17 17:21:00,81.6,64.4,29.87,WSW,248,3.0,3.0,56,0.00,,---,0.22,VWS V14.01,2013-06-17 21:21:00,
2013-06-17 17:26:00,81.4,63.7,29.86,WSW,254,0.0,3.0,55,0.00,,---,0.22,VWS V14.01,2013-06-17 21:26:00,
2013-06-17 17:30:00,81.2,63.5,29.86,SW,236,0.0,3.0,55,0.00,,---,0.22,VWS V14.01,2013-06-17 21:30:00,
2013-06-17 17:31:00,81.1,63.4,29.86,WSW,246,0.0,2.0,55,0.00,,---,0.22,VWS V14.01,2013-06-17 21:31:00,
2013-06-17 17:36:00,81.2,64.5,29.86,WSW,246,0.0,3.0,57,0.00,,---,0.22,VWS V14.01,2013-06-17 21:36:00,
2013-06-17 17:40:00,81.2,63.5,29.86,SW,227,4.0,4.0,55,0.00,,---,0.22,VWS V14.01,2013-06-17 21:40:00,
2013-06-17 17:41:00,80.9,63.2,29.86,SSW,213,0.0,5.0,55,0.00,,---,0.22,VWS V14.01,2013-06-17 21:41:00,
2013-06-17 17:46:00,80.8,63.7,29.86,West,260,0.0,5.0,56,0.00,,---,0.22,VWS V14.01,2013-06-17 21:46:00,
2013-06-17 17:50:00,80.7,64.1,29.85,WNW,286,0.0,5.0,57,0.00,,---,0.22,VWS V14.01,2013-06-17 21:50:00,
2013-06-17 17:51:00,80.7,63.0,29.86,WSW,249,1.0,2.0,55,0.00,,---,0.22,VWS V14.01,2013-06-17 21:51:00,
2013-06-17 17:56:00,80.7,64.6,29.86,SW,230,0.0,2.0,58,0.00,,---,0.22,VWS V14.01,2013-06-17 21:56:00,
2013-06-17 18:00:00,80.9,64.2,29.86,SW,215,0.0,2.0,57,0.00,,---,0.22,VWS V14.01,2013-06-17 22:00:00,
2013-06-17 18:01:00,81.1,63.4,29.86,WSW,238,0.0,0.0,55,0.00,,---,0.22,VWS V14.01,2013-06-17 22:01:00,
2013-06-17 18:06:00,81.8,64.1,29.86,WSW,244,0.0,1.0,55,0.00,,---,0.22,VWS V14.01,2013-06-17 22:06:00,
2013-06-17 18:10:00,82.0,63.2,29.85,WSW,256,0.0,1.0,53,0.00,,---,0.22,VWS V14.01,2013-06-17 22:10:00,
2013-06-17 18:11:00,81.7,62.9,29.85,SW,215,0.0,4.0,53,0.00,,---,0.22,VWS V14.01,2013-06-17 22:11:00,
2013-06-17 18:16:00,82.0,63.7,29.86,SW,227,0.0,4.0,54,0.00,,---,0.22,VWS V14.01,2013-06-17 22:16:00,
2013-06-17 18:20:00,82.3,63.5,29.86,SW,232,1.0,4.0,53,0.00,,---,0.22,VWS V14.01,2013-06-17 22:20:00,
2013-06-17 18:21:00,82.5,63.7,29.85,SW,232,2.0,2.0,53,0.00,,---,0.22,VWS V14.01,2013-06-17 22:21:00,
2013-06-17 18:26:00,82.8,64.5,29.86,WSW,249,0.0,2.0,54,0.00,,---,0.22,VWS V14.01,2013-06-17 22:26:00,
2013-06-17 18:30:00,82.8,64.5,29.86,WSW,257,0.0,2.0,54,0.00,,---,0.22,VWS V14.01,2013-06-17 22:30:00,
2013-06-17 18:31:00,82.8,64.5,29.85,ESE,121,0.0,0.0,54,0.00,,---,0.22,VWS V14.01,2013-06-17 22:31:00,
2013-06-17 18:36:00,82.5,65.8,29.86,SW,229,1.0,4.0,57,0.00,,---,0.22,VWS V14.01,2013-06-17 22:36:00,
2013-06-17 18:40:00,82.1,64.9,29.85,South,178,0.0,4.0,56,0.00,,---,0.22,VWS V14.01,2013-06-17 22:40:00,
2013-06-17 18:41:00,81.8,64.6,29.86,West,267,1.0,3.0,56,0.00,,---,0.22,VWS V14.01,2013-06-17 22:41:00,
2013-06-17 18:46:00,81.7,65.5,29.86,SSW,199,1.0,4.0,58,0.00,,---,0.22,VWS V14.01,2013-06-17 22:46:00,
2013-06-17 18:50:00,81.5,64.8,29.85,WSW,237,0.0,4.0,57,0.00,,---,0.22,VWS V14.01,2013-06-17 22:50:00,
2013-06-17 18:51:00,81.4,64.7,29.85,WSW,249,0.0,3.0,57,0.00,,---,0.22,VWS V14.01,2013-06-17 22:51:00,
2013-06-17 18:56:00,81.2,65.0,29.85,SSW,213,2.0,3.0,58,0.00,,---,0.22,VWS V14.01,2013-06-17 22:56:00,
2013-06-17 19:00:00,81.1,64.9,29.85,SW,234,0.0,3.0,58,0.00,,---,0.22,VWS V14.01,2013-06-17 23:00:00,
2013-06-17 19:02:00,81.1,65.4,29.85,SE,144,0.0,2.0,59,0.00,,---,0.22,VWS V14.01,2013-06-17 23:02:00,
2013-06-17 19:07:00,81.2,65.0,29.85,SSW,207,0.0,3.0,58,0.00,,---,0.22,VWS V14.01,2013-06-17 23:07:00,
2013-06-17 19:10:00,81.1,65.4,29.85,ESE,119,0.0,3.0,59,0.00,,---,0.22,VWS V14.01,2013-06-17 23:10:00,
2013-06-17 19:12:00,81.1,65.4,29.86,SE,128,0.0,1.0,59,0.00,,---,0.22,VWS V14.01,2013-06-17 23:12:00,
2013-06-17 19:17:00,81.3,65.1,29.86,SE,145,0.0,1.0,58,0.00,,---,0.22,VWS V14.01,2013-06-17 23:17:00,
2013-06-17 19:20:00,81.3,65.1,29.86,SW,233,0.0,1.0,58,0.00,,---,0.22,VWS V14.01,2013-06-17 23:20:00,
2013-06-17 19:22:00,81.2,64.5,29.86,SSW,211,0.0,0.0,57,0.00,,---,0.22,VWS V14.01,2013-06-17 23:22:00,
2013-06-17 19:27:00,81.0,64.8,29.86,WSW,245,0.0,1.0,58,0.00,,---,0.22,VWS V14.01,2013-06-17 23:27:00,
2013-06-17 19:30:00,81.0,64.8,29.86,NE,38,0.0,1.0,58,0.00,,---,0.22,VWS V14.01,2013-06-17 23:30:00,
2013-06-17 19:32:00,81.1,65.4,29.85,ENE,70,0.0,0.0,59,0.00,,---,0.22,VWS V14.01,2013-06-17 23:32:00,
2013-06-17 19:37:00,81.0,64.8,29.85,SW,219,1.0,2.0,58,0.00,,---,0.22,VWS V14.01,2013-06-17 23:37:00,
2013-06-17 19:40:00,80.8,64.7,29.85,SW,236,0.0,2.0,58,0.00,,---,0.22,VWS V14.01,2013-06-17 23:40:00,
2013-06-17 19:42:00,80.6,64.5,29.86,WSW,257,0.0,1.0,58,0.00,,---,0.22,VWS V14.01,2013-06-17 23:42:00,
2013-06-17 19:47:00,80.7,65.1,29.86,WSW,250,0.0,1.0,59,0.00,,---,0.22,VWS V14.01,2013-06-17 23:47:00,
2013-06-17 19:50:00,80.7,65.5,29.86,WSW,246,0.0,1.0,60,0.00,,---,0.22,VWS V14.01,2013-06-17 23:50:00,
2013-06-17 19:52:00,80.7,65.5,29.86,WSW,246,0.0,0.0,60,0.00,,---,0.22,VWS V14.01,2013-06-17 23:52:00,
2013-06-17 19:57:00,80.6,65.4,29.86,WSW,246,0.0,0.0,60,0.00,,---,0.22,VWS V14.01,2013-06-17 23:57:00,
2013-06-17 20:00:00,80.5,65.3,29.86,WSW,244,0.0,0.0,60,0.00,,---,0.22,VWS V14.01,2013-06-18 00:00:00,
2013-06-17 20:02:00,80.2,65.1,29.86,WSW,245,0.0,0.0,60,0.00,,---,0.22,VWS V14.01,2013-06-18 00:02:00,
2013-06-17 20:07:00,79.5,65.8,29.87,SSW,208,0.0,0.0,63,0.00,,---,0.22,VWS V14.01,2013-06-18 00:07:00,
2013-06-17 20:10:00,79.2,66.0,29.87,SSW,207,0.0,0.0,64,0.00,,---,0.22,VWS V14.01,2013-06-18 00:10:00,
2013-06-17 20:12:00,78.7,65.5,29.86,SW,226,0.0,0.0,64,0.00,,---,0.22,VWS V14.01,2013-06-18 00:12:00,
2013-06-17 20:17:00,77.8,65.1,29.86,SW,226,0.0,0.0,65,0.00,,---,0.22,VWS V14.01,2013-06-18 00:17:00,
2013-06-17 20:20:00,77.6,64.9,29.87,SW,226,0.0,0.0,65,0.00,,---,0.22,VWS V14.01,2013-06-18 00:20:00,
2013-06-17 20:22:00,77.5,65.3,29.87,SW,226,0.0,0.0,66,0.00,,---,0.22,VWS V14.01,2013-06-18 00:22:00,
2013-06-17 20:27:00,77.2,66.2,29.87,SW,226,0.0,0.0,69,0.00,,---,0.22,VWS V14.01,2013-06-18 00:27:00,
2013-06-17 20:30:00,77.0,65.6,29.87,SW,226,0.0,0.0,68,0.00,,---,0.22,VWS V14.01,2013-06-18 00:30:00,
2013-06-17 20:32:00,76.6,65.3,29.87,SW,226,0.0,0.0,68,0.00,,---,0.22,VWS V14.01,2013-06-18 00:32:00,
2013-06-17 20:37:00,76.2,65.3,29.87,SW,226,0.0,0.0,69,0.00,,---,0.22,VWS V14.01,2013-06-18 00:37:00,
2013-06-17 20:40:00,76.0,65.1,29.87,SW,226,0.0,0.0,69,0.00,,---,0.22,VWS V14.01,2013-06-18 00:40:00,
2013-06-17 20:42:00,75.7,65.2,29.87,SW,225,0.0,0.0,70,0.00,,---,0.22,VWS V14.01,2013-06-18 00:42:00,
2013-06-17 20:47:00,75.2,66.0,29.87,SW,225,0.0,0.0,73,0.00,,---,0.22,VWS V14.01,2013-06-18 00:47:00,
2013-06-17 20:50:00,75.0,66.2,29.87,SW,223,0.0,0.0,74,0.00,,---,0.22,VWS V14.01,2013-06-18 00:50:00,
2013-06-17 20:52:00,74.7,65.9,29.87,SW,223,0.0,0.0,74,0.00,,---,0.22,VWS V14.01,2013-06-18 00:52:00,
2013-06-17 20:57:00,74.2,65.8,29.88,SW,223,0.0,0.0,75,0.00,,---,0.22,VWS V14.01,2013-06-18 00:57:00,
2013-06-17 21:00:00,74.0,66.0,29.87,SW,223,0.0,0.0,76,0.00,,---,0.22,VWS V14.01,2013-06-18 01:00:00,
2013-06-17 21:02:00,73.7,66.1,29.88,SW,223,0.0,0.0,77,0.00,,---,0.22,VWS V14.01,2013-06-18 01:02:00,
2013-06-17 21:07:00,73.3,66.0,29.87,SW,224,0.0,0.0,78,0.00,,---,0.22,VWS V14.01,2013-06-18 01:07:00,
2013-06-17 21:10:00,73.2,65.9,29.87,SW,223,0.0,0.0,78,0.00,,---,0.22,VWS V14.01,2013-06-18 01:10:00,
2013-06-17 21:12:00,73.1,66.2,29.87,SW,223,0.0,0.0,79,0.00,,---,0.22,VWS V14.01,2013-06-18 01:12:00,
2013-06-17 21:17:00,72.8,65.9,29.87,SW,223,0.0,0.0,79,0.00,,---,0.22,VWS V14.01,2013-06-18 01:17:00,
2013-06-17 21:20:00,72.7,65.8,29.87,SW,223,0.0,0.0,79,0.00,,---,0.22,VWS V14.01,2013-06-18 01:20:00,
2013-06-17 21:22:00,72.4,65.5,29.87,SW,223,0.0,0.0,79,0.00,,---,0.22,VWS V14.01,2013-06-18 01:22:00,
2013-06-17 21:27:00,72.1,65.9,29.88,SW,223,0.0,0.0,81,0.00,,---,0.22,VWS V14.01,2013-06-18 01:27:00,
2013-06-17 21:30:00,72.0,65.9,29.88,SW,223,0.0,0.0,81,0.00,,---,0.22,VWS V14.01,2013-06-18 01:30:00,
2013-06-17 21:32:00,72.0,66.2,29.88,SW,224,0.0,0.0,82,0.00,,---,0.22,VWS V14.01,2013-06-18 01:32:00,
2013-06-17 21:37:00,72.0,66.2,29.88,SW,223,0.0,0.0,82,0.00,,---,0.22,VWS V14.01,2013-06-18 01:37:00,
2013-06-17 21:40:00,71.9,66.1,29.88,SW,223,0.0,0.0,82,0.00,,---,0.22,VWS V14.01,2013-06-18 01:40:00,
2013-06-17 21:42:00,71.7,65.9,29.88,SW,223,0.0,0.0,82,0.00,,---,0.22,VWS V14.01,2013-06-18 01:42:00,
2013-06-17 21:47:00,71.4,66.0,29.88,SW,223,0.0,0.0,83,0.00,,---,0.22,VWS V14.01,2013-06-18 01:47:00,
2013-06-17 21:50:00,71.4,66.3,29.88,SW,223,0.0,0.0,84,0.00,,---,0.22,VWS V14.01,2013-06-18 01:50:00,
2013-06-17 21:52:00,71.3,66.2,29.88,SW,223,0.0,0.0,84,0.00,,---,0.22,VWS V14.01,2013-06-18 01:52:00,
2013-06-17 21:57:00,71.1,66.0,29.88,SW,223,0.0,0.0,84,0.00,,---,0.22,VWS V14.01,2013-06-18 01:57:00,
2013-06-17 22:00:00,71.1,66.0,29.88,SW,223,0.0,0.0,84,0.00,,---,0.22,VWS V14.01,2013-06-18 02:00:00,
2013-06-17 22:02:00,71.0,66.3,29.87,SW,223,0.0,0.0,85,0.00,,---,0.22,VWS V14.01,2013-06-18 02:02:00,
2013-06-17 22:07:00,70.7,66.0,29.87,SW,225,0.0,0.0,85,0.00,,---,0.22,VWS V14.01,2013-06-18 02:07:00,
2013-06-17 22:10:00,70.6,65.9,29.87,SW,225,0.0,0.0,85,0.00,,---,0.22,VWS V14.01,2013-06-18 02:10:00,
2013-06-17 22:12:00,70.3,65.6,29.88,SW,225,0.0,0.0,85,0.00,,---,0.22,VWS V14.01,2013-06-18 02:12:00,
2013-06-17 22:17:00,70.1,65.7,29.88,SW,223,0.0,0.0,86,0.00,,---,0.22,VWS V14.01,2013-06-18 02:17:00,
2013-06-17 22:20:00,70.1,65.7,29.88,SW,223,0.0,0.0,86,0.00,,---,0.22,VWS V14.01,2013-06-18 02:20:00,
2013-06-17 22:22:00,69.9,65.5,29.87,SW,223,0.0,0.0,86,0.00,,---,0.22,VWS V14.01,2013-06-18 02:22:00,
2013-06-17 22:27:00,69.7,65.7,29.87,SW,223,0.0,0.0,87,0.00,,---,0.22,VWS V14.01,2013-06-18 02:27:00,
2013-06-17 22:30:00,69.7,65.7,29.87,SW,223,0.0,0.0,87,0.00,,---,0.22,VWS V14.01,2013-06-18 02:30:00,
2013-06-17 22:32:00,69.7,65.7,29.87,SW,223,0.0,0.0,87,0.00,,---,0.22,VWS V14.01,2013-06-18 02:32:00,
2013-06-17 22:37:00,69.6,65.6,29.87,SW,223,0.0,0.0,87,0.00,,---,0.22,VWS V14.01,2013-06-18 02:37:00,
2013-06-17 22:40:00,69.6,65.6,29.87,SW,224,0.0,0.0,87,0.00,,---,0.22,VWS V14.01,2013-06-18 02:40:00,
2013-06-17 22:42:00,69.4,65.7,29.88,SW,223,0.0,0.0,88,0.00,,---,0.22,VWS V14.01,2013-06-18 02:42:00,
2013-06-17 22:47:00,69.2,65.5,29.87,SE,146,0.0,0.0,88,0.00,,---,0.22,VWS V14.01,2013-06-18 02:47:00,
2013-06-17 22:50:00,69.1,65.4,29.88,SE,146,0.0,0.0,88,0.00,,---,0.22,VWS V14.01,2013-06-18 02:50:00,
2013-06-17 22:52:00,69.0,65.6,29.87,SE,145,0.0,0.0,89,0.00,,---,0.22,VWS V14.01,2013-06-18 02:52:00,
2013-06-17 22:57:00,68.9,65.5,29.87,SE,146,0.0,0.0,89,0.00,,---,0.22,VWS V14.01,2013-06-18 02:57:00,
2013-06-17 23:00:00,68.9,65.5,29.87,SE,145,0.0,0.0,89,0.00,,---,0.22,VWS V14.01,2013-06-18 03:00:00,
2013-06-17 23:02:00,68.8,65.1,29.87,SE,145,0.0,0.0,88,0.00,,---,0.22,VWS V14.01,2013-06-18 03:02:00,
2013-06-17 23:07:00,68.5,64.8,29.87,SE,145,0.0,0.0,88,0.00,,---,0.22,VWS V14.01,2013-06-18 03:07:00,
2013-06-17 23:10:00,68.4,65.0,29.87,SSE,147,0.0,0.0,89,0.00,,---,0.22,VWS V14.01,2013-06-18 03:10:00,
2013-06-17 23:12:00,68.2,64.8,29.87,SE,145,0.0,0.0,89,0.00,,---,0.22,VWS V14.01,2013-06-18 03:12:00,
2013-06-17 23:17:00,68.1,65.1,29.88,SSE,147,0.0,0.0,90,0.00,,---,0.22,VWS V14.01,2013-06-18 03:17:00,
2013-06-17 23:20:00,68.1,65.1,29.88,SSE,147,0.0,0.0,90,0.00,,---,0.22,VWS V14.01,2013-06-18 03:20:00,
2013-06-17 23:22:00,68.1,65.1,29.87,SSE,147,0.0,0.0,90,0.00,,---,0.22,VWS V14.01,2013-06-18 03:22:00,
2013-06-17 23:27:00,68.0,65.0,29.87,SSE,147,0.0,0.0,90,0.00,,---,0.22,VWS V14.01,2013-06-18 03:27:00,
2013-06-17 23:30:00,67.9,64.9,29.87,SE,146,0.0,0.0,90,0.00,,---,0.22,VWS V14.01,2013-06-18 03:30:00,
2013-06-17 23:32:00,67.8,64.8,29.87,SE,146,0.0,0.0,90,0.00,,---,0.22,VWS V14.01,2013-06-18 03:32:00,
2013-06-17 23:37:00,67.7,65.0,29.87,SE,146,0.0,0.0,91,0.00,,---,0.22,VWS V14.01,2013-06-18 03:37:00,
2013-06-17 23:40:00,67.6,64.9,29.87,SSE,147,0.0,0.0,91,0.00,,---,0.22,VWS V14.01,2013-06-18 03:40:00,
2013-06-17 23:42:00,67.6,64.9,29.87,SSE,147,0.0,0.0,91,0.00,,---,0.22,VWS V14.01,2013-06-18 03:42:00,
2013-06-17 23:47:00,67.5,64.8,29.87,SSE,147,0.0,0.0,91,0.00,,---,0.22,VWS V14.01,2013-06-18 03:47:00,
2013-06-17 23:50:00,67.5,64.8,29.87,SE,146,0.0,0.0,91,0.00,,---,0.22,VWS V14.01,2013-06-18 03:50:00,
2013-06-17 23:52:00,67.3,64.6,29.87,SE,146,0.0,0.0,91,0.00,,---,0.22,VWS V14.01,2013-06-18 03:52:00,
2013-06-17 23:57:00,67.2,64.5,29.87,SE,146,0.0,0.0,91,0.00,,---,0.22,VWS V14.01,2013-06-18 03:57:00,